Meteor-2

operational
NORAD ID: 18312 Int'l Des: 1987-068 Owner: UNKS/GMS Country: SU
LEOCIRCULARPOLAR

Meteor-2について

説明を読み込み中...

リアルタイム位置

3D地球を読み込み中...

次回通過

高度履歴

Altitude vs Time

uPlot chart will show altitude changes over time

軌道要素

1 18312U 87068A 26061.14050848 .00000006 00000-0 -78999-5 0 9993
2 18312 82.5586 19.3992 0012188 347.8992 12.1874 13.84940212947496
Epoch: Mar 2, 2026 • Age: 39 hours

現在のステータス

高度 957.6 km
速度 7.37 km/s
衛星直下点 5.24°N, 172.78°E
打ち上げ日 Aug 18, 1987
運用期間 38.5 years
タイプ other

技術仕様

分類 Payload
質量 1500.00 kg
乾燥質量 1500.00 kg
総質量 1500.00 kg
長さ 4.50 m
直径 1.40 m
スパン 4.50 m
形状 Cyl + 2 Pan
製造者 VNIEM
バスタイプ Meteor-2
フェーズステータス In Orbit
所有者/国 UNKS/GMS/SU

大規模コンステレーション

Loading constellations...